GFSNE_sfc_rhum_273.txt.gz
RH
86 86 88 86 90 88 89 94 97 95 90 70 76 63 72 76 86 84 84 95 100 100 100 100 99 99 98 98 98 100 94 94 92 88 88 83 81 81
77 78 82 81 85 86 92 88 88 95 96 72 76 84 81 91 91 91 88 99 100 100 100 100 99 99 98 97 98 98 98 98 97 92 91 87 85 83
77 75 78 76 81 81 84 84 86 89 92 79 71 78 77 81 74 72 75 89 94 100 100 100 100 99 99 99 99 99 99 99 98 98 95 94 92 87
82 80 81 67 76 76 77 81 88 84 91 87 81 85 77 77 70 74 65 59 76 82 93 100 100 100 99 99 99 100 99 99 99 98 99 95 94 93
76 78 78 75 79 78 77 78 80 77 82 84 82 77 74 69 70 66 63 65 55 77 86 94 99 100 100 99 99 99 99 99 100 100 100 100 97 96
78 77 76 76 80 82 78 81 78 81 82 80 77 78 76 74 73 76 74 66 67 60 72 80 94 96 99 99 99 99 99 99 100 100 100 100 100 99
77 77 80 84 88 91 81 80 80 82 83 85 84 85 88 87 87 85 86 78 70 72 66 59 64 70 76 91 93 99 99 99 99 99 100 100 100 100
82 77 72 73 76 90 91 91 91 82 82 87 91 90 83 88 85 83 87 86 86 63 71 74 69 73 79 82 98 99 98 99 99 99 99 99 99 99
76 73 70 66 74 66 72 80 77 85 95 85 91 91 92 84 85 89 88 90 91 82 78 92 72 80 81 84 97 98 99 98 99 99 99 100 100 99
69 66 66 65 66 70 66 68 68 71 75 73 80 77 80 80 84 88 90 92 92 87 80 100 88 86 84 89 96 96 98 98 99 99 99 99 99 99
61 66 69 69 81 87 80 71 71 72 72 89 90 90 89 88 90 92 94 96 99 93 83 98 100 100 99 95 93 95 96 97 97 97 99 99 99 99
57 59 80 77 80 83 80 74 72 69 75 88 88 83 82 80 90 87 86 98 98 99 88 98 90 99 100 100 93 94 93 94 94 96 96 97 98 97
62 68 66 73 75 76 78 69 77 86 81 86 92 92 90 87 86 86 85 95 98 98 93 97 100 100 100 100 100 90 91 93 91 92 94 95 96 96
68 70 71 76 76 76 76 79 78 84 75 85 90 92 92 93 90 91 89 90 94 96 93 97 100 99 99 100 99 97 91 83 79 81 84 86 93 96
71 76 76 75 74 74 74 74 77 80 86 93 90 93 86 85 87 94 92 91 94 94 96 97 99 97 98 99 96 97 100 98 81 84 83 87 89 87
79 79 78 76 73 76 77 80 80 78 81 86 89 90 96 94 94 96 98 97 99 98 97 97 97 98 99 98 97 99 94 100 99 92 95 94 95 96
81 80 83 82 81 78 74 73 72 72 77 80 84 91 94 97 97 97 98 98 99 99 100 100 100 99 99 99 100 94 96 99 99 98 99 97 97 99
79 84 86 86 84 80 80 79 76 77 77 80 84 87 94 97 98 97 99 100 98 99 100 99 100 100 100 100 97 97 97 99 100 99 99 99 98 94
84 85 88 87 85 80 80 81 84 81 88 88 92 94 96 100 100 99 98 97 97 96 99 100 100 99 95 94 99 98 98 94 100 100 98 92 91 90
81 85 87 86 84 84 82 83 82 84 87 91 93 94 95 96 99 100 100 100 96 97 100 100 99 96 91 91 97 100 99 100 100 99 97 98 89 97
80 81 81 81 82 81 85 86 90 91 93 94 93 94 95 93 92 98 98 98 97 97 98 96 94 97 98 99 100 99 100 95 97 96 94 88 91 97
77 80 77 78 82 83 86 90 90 88 89 90 93 94 94 93 93 95 100 100 98 98 97 100 100 100 100 92 95 100 89 99 98 97 97 98 100 99
79 80 82 83 82 82 79 85 86 91 88 90 92 91 94 95 91 93 97 100 100 100 100 100 100 100 98 94 90 91 99 97 99 96 100 98 98 98

GFSNE_sfc_rhum_279.txt.gz
RH
98 98 97 88 81 72 73 84 90 81 56 42 41 49 55 53 67 58 62 88 95 88 88 92 98 99 98 98 98 98 97 96 97 97 96 95 94 93
92 80 73 67 62 64 65 63 70 79 66 38 39 45 51 46 49 52 51 69 93 86 90 91 98 99 99 98 99 98 98 97 96 99 98 96 95 95
74 72 71 70 69 63 59 58 58 62 63 50 42 45 54 54 50 50 48 45 46 85 87 84 91 99 99 99 99 99 99 99 99 98 99 99 98 97
70 70 68 58 66 62 54 60 60 61 61 64 54 51 52 53 54 58 43 37 44 70 82 84 86 91 93 99 99 99 99 99 99 100 100 100 98 96
73 72 71 68 68 65 61 62 57 54 57 58 59 54 54 54 59 52 50 53 38 56 61 76 79 78 87 96 97 99 99 99 100 100 100 100 100 100
72 77 71 69 68 68 56 61 56 61 59 65 66 65 66 62 59 60 62 56 53 41 51 67 67 72 83 94 92 92 97 98 98 100 100 100 100 100
67 60 72 71 77 74 57 63 62 61 64 66 71 75 79 74 75 73 73 66 62 57 51 50 48 47 53 78 80 92 95 96 98 98 99 100 100 100
62 62 54 72 73 77 77 74 72 64 66 72 77 80 71 70 72 78 83 80 83 55 63 60 52 54 48 60 95 92 92 92 94 90 93 98 100 100
60 56 45 52 71 57 58 62 60 79 85 63 69 78 81 77 80 86 78 75 78 67 65 78 60 62 53 61 92 90 93 94 95 96 95 93 97 100
48 53 50 51 68 70 60 51 48 45 46 47 59 61 65 67 72 70 76 78 76 73 65 89 76 77 71 67 90 90 91 92 94 95 97 96 99 100
38 50 49 54 72 74 62 59 56 53 50 61 63 65 65 67 71 69 83 82 84 82 75 87 85 86 85 78 80 90 90 90 90 93 95 97 97 99
39 40 73 68 71 71 65 60 64 61 62 62 56 51 55 54 75 80 78 89 87 88 73 94 96 95 100 100 79 84 77 90 91 89 91 92 94 96
46 51 50 71 70 69 69 60 66 67 69 64 70 74 67 62 63 60 63 81 88 90 78 82 89 89 90 94 98 78 78 86 81 83 88 88 91 93
62 65 66 70 69 69 68 70 70 78 79 81 79 79 80 79 76 74 67 68 71 81 77 72 98 99 98 98 99 98 88 86 83 83 88 84 90 89
70 77 69 66 67 72 70 72 75 78 82 84 83 82 80 78 73 76 74 62 68 64 63 73 87 97 98 97 98 95 100 98 89 90 89 88 81 82
78 88 80 79 76 78 80 78 76 78 79 82 84 80 77 79 79 80 82 82 82 81 77 81 87 97 98 97 98 98 99 100 95 88 86 88 90 91
85 89 86 84 82 77 75 74 74 71 78 80 84 84 80 79 78 78 78 82 92 88 87 86 88 98 98 98 99 98 98 96 93 91 90 89 89 92
77 82 87 87 84 80 81 80 75 78 79 81 86 83 85 84 82 78 78 83 92 95 96 85 87 99 100 99 98 98 98 98 98 92 90 94 94 89
79 83 88 89 87 83 83 84 86 82 84 84 85 87 88 86 86 83 81 82 86 83 90 95 98 98 98 97 91 96 96 97 100 100 98 90 90 88
75 80 87 88 86 86 85 85 84 85 86 86 89 88 89 89 89 86 84 87 86 84 85 83 98 98 98 95 99 100 98 100 100 94 92 99 96 94
69 77 82 83 84 85 87 88 89 90 90 92 90 90 90 89 89 85 85 86 89 86 90 88 97 99 99 100 100 100 100 97 85 85 92 96 96 96
74 81 81 82 86 87 89 90 89 88 88 89 91 91 91 90 93 91 90 93 89 91 93 94 99 100 100 100 98 100 100 100 93 90 95 97 96 94
82 83 84 85 84 85 84 87 87 90 87 92 90 91 92 93 90 92 93 92 93 93 96 99 100 100 100 100 100 100 100 98 100 100 100 92 95 94

GFSNE_sfc_rhum_285.txt.gz
RH
99 98 98 99 98 97 98 97 94 99 99 96 96 80 74 74 78 76 72 83 90 90 89 87 89 97 96 93 97 96 96 96 96 95 95 94 94 97
96 95 96 97 96 95 95 93 94 95 98 95 91 78 73 62 72 72 68 84 89 88 82 81 85 90 90 87 98 98 98 98 97 97 97 97 96 96
95 95 95 96 96 94 90 87 87 88 93 93 76 73 76 75 69 71 71 70 73 78 82 80 85 85 83 86 97 98 98 97 97 97 97 98 97 98
93 90 92 86 91 88 79 75 72 73 85 86 78 77 78 74 77 78 62 54 64 70 77 76 77 81 88 86 98 98 95 97 96 94 95 97 98 98
93 91 88 84 80 71 68 71 74 67 76 78 85 82 81 75 81 76 69 75 56 65 67 73 80 79 82 88 98 94 94 97 98 98 98 98 98 98
95 95 91 87 85 74 64 67 63 74 76 78 83 84 83 80 79 78 79 73 74 57 65 74 76 74 76 94 91 92 97 96 95 96 94 95 98 98
90 85 91 86 85 86 74 76 69 71 78 85 86 91 89 87 87 89 84 82 75 76 82 68 63 66 68 72 76 91 94 93 92 93 91 92 91 95
83 85 82 86 85 82 72 74 75 71 76 83 84 84 77 77 74 77 83 85 89 80 71 75 70 73 72 73 75 84 93 91 88 89 90 86 88 91
71 71 70 72 78 74 70 72 71 69 81 71 80 82 84 81 83 84 84 83 85 74 75 87 79 82 76 65 80 91 94 92 90 89 93 92 86 88
74 72 73 74 74 75 76 72 70 69 73 69 81 82 79 79 82 80 88 87 88 86 82 95 87 88 80 82 78 81 84 91 92 91 88 93 95 88
66 71 72 73 72 71 74 76 77 75 68 73 70 71 72 74 75 84 92 91 91 90 89 96 96 94 91 94 81 87 89 91 93 93 91 92 93 96
69 72 78 73 72 70 79 80 84 83 87 83 78 76 79 77 74 84 92 97 96 94 93 92 88 96 95 97 93 88 90 89 90 84 85 92 92 96
79 82 84 70 70 71 77 74 78 81 86 85 88 88 81 80 82 82 84 94 94 92 84 90 90 89 96 86 89 87 86 84 90 89 86 93 92 93
86 90 75 69 70 72 75 71 75 87 88 89 90 87 88 88 87 84 80 83 89 88 83 86 95 97 93 89 90 93 91 91 94 93 96 93 93 93
83 74 71 72 74 82 73 72 84 90 92 93 91 91 90 91 80 83 79 75 76 76 68 82 90 90 94 97 95 86 86 86 91 94 94 94 89 92
85 87 89 83 88 89 87 83 85 86 88 90 91 90 83 84 84 84 86 84 86 84 77 78 83 89 93 93 96 96 89 94 88 88 94 94 94 92
88 91 88 88 88 86 84 81 82 82 86 87 89 89 86 84 83 82 82 84 89 87 85 79 78 82 86 87 94 92 92 92 93 97 93 92 92 96
85 90 91 91 91 89 89 88 85 86 86 87 89 88 89 88 85 81 81 86 90 85 85 83 84 87 83 80 83 94 96 98 93 96 97 98 97 98
90 92 93 93 92 90 90 91 92 90 90 90 92 92 92 91 92 89 86 85 86 84 84 83 86 90 94 92 79 89 98 97 97 99 99 98 98 99
89 92 93 93 93 93 93 92 91 90 90 90 91 91 91 92 92 89 87 90 88 85 85 82 84 93 95 92 93 84 89 98 98 98 99 100 99 98
90 90 89 91 91 91 91 90 90 91 90 91 90 90 91 92 90 88 88 87 88 86 89 85 79 78 93 96 97 97 92 98 98 98 99 99 99 99
88 88 87 88 90 90 91 91 90 89 89 90 92 92 90 91 93 92 90 92 88 88 91 86 82 86 92 97 97 98 98 99 98 99 99 98 98 98
91 90 90 90 90 90 87 89 90 92 90 89 90 90 92 93 90 92 93 92 92 92 89 91 87 87 92 99 98 98 98 99 99 99 98 97 97 97

GFSNE_sfc_rhum_288.txt.gz
RH
98 97 97 95 97 97 96 94 86 99 99 98 95 93 94 90 89 81 77 92 94 92 88 85 84 88 95 85 86 97 98 93 93 93 94 93 94 92
95 94 95 97 96 96 96 94 97 95 98 95 97 96 91 86 90 87 74 79 81 82 81 81 81 80 84 87 94 97 95 95 93 93 94 94 92 94
94 93 96 96 98 96 96 95 96 97 96 98 94 93 91 90 88 79 68 67 75 78 80 83 84 84 88 87 95 97 94 92 91 89 90 91 92 93
94 93 95 96 98 98 97 97 96 96 96 97 95 93 89 85 85 82 61 54 63 69 76 84 82 81 83 88 98 97 95 98 98 98 98 95 90 91
96 95 95 95 96 97 96 95 91 89 94 95 93 78 74 74 73 72 67 73 54 60 69 75 76 78 79 80 93 94 93 98 96 96 95 95 97 97
93 93 94 94 95 95 94 96 90 87 84 88 86 87 84 78 76 78 80 76 74 55 71 68 68 71 72 76 78 81 91 95 95 93 92 92 93 92
87 84 89 90 90 84 81 78 78 86 88 90 89 85 85 84 81 76 74 74 69 80 68 69 72 74 74 75 74 78 81 88 94 92 91 90 91 91
83 83 79 83 82 72 70 71 75 77 79 85 89 89 85 84 85 86 89 88 92 76 77 74 79 81 77 76 76 81 84 87 93 92 91 91 88 90
75 74 72 72 79 72 69 70 72 76 88 83 84 89 90 91 92 88 90 93 92 80 83 94 86 91 82 67 77 79 84 84 88 91 92 93 87 88
82 73 76 78 74 76 74 72 70 72 75 70 80 80 79 85 86 83 92 93 92 90 87 100 93 96 86 83 81 82 85 89 91 91 94 94 93 97
75 77 74 76 78 77 76 77 78 78 68 72 72 72 71 71 74 86 95 90 90 95 93 92 97 92 91 92 89 84 84 81 89 91 84 83 88 93
74 68 73 72 74 74 76 77 86 86 84 82 77 71 72 74 77 85 94 89 89 94 94 94 87 90 95 96 90 83 90 86 83 83 86 87 85 95
75 75 71 72 73 73 75 74 80 79 85 85 86 86 83 81 82 81 82 94 94 94 87 93 97 92 96 89 91 87 87 86 93 93 89 88 90 94
81 80 78 73 73 75 76 74 77 83 88 87 88 90 90 89 86 84 81 83 89 88 83 86 96 96 94 92 92 95 92 93 95 93 90 85 85 86
79 76 75 75 76 84 76 76 84 88 92 92 93 91 89 86 80 82 78 75 76 76 69 80 93 92 96 94 92 88 93 96 88 91 94 91 93 92
87 89 89 85 87 89 87 85 86 87 90 91 92 88 83 83 84 82 85 84 87 86 73 78 85 87 93 91 91 90 83 94 87 87 88 89 89 90
92 92 90 90 90 88 86 83 84 83 87 88 91 90 87 83 83 81 80 84 88 88 86 80 80 82 86 89 93 90 92 91 89 91 92 94 91 89
87 92 92 92 92 90 90 89 85 87 87 88 90 89 90 88 86 81 80 87 90 86 86 83 85 88 86 87 82 93 93 93 88 89 91 97 96 90
91 92 93 93 92 90 90 90 92 89 89 90 91 91 91 90 91 89 86 86 86 84 84 83 87 91 94 94 87 75 86 88 85 93 96 97 97 97
88 92 93 93 92 92 91 92 90 90 90 91 92 92 93 93 93 91 89 91 89 86 86 83 86 90 95 92 94 81 73 86 90 94 97 96 97 99
90 90 91 91 91 91 92 92 91 92 92 94 92 92 92 93 92 90 90 89 90 87 90 86 79 78 92 94 96 90 82 81 90 98 98 99 98 99
89 89 88 87 90 91 91 91 91 90 90 90 92 92 92 94 94 93 92 94 89 90 90 86 82 84 91 94 92 90 87 88 95 99 99 98 98 98
91 90 90 90 89 89 88 91 91 91 90 91 92 91 92 94 92 93 94 92 92 92 89 91 88 87 91 92 94 96 98 96 99 99 99 96 98 98